Regional Weather Roundup
Issued by NWS

Home | Current Version | Previous Version | Graphics & Text | Print | Product List | Glossary Off
Versions: 1 2 3 4 5 6 7 8 9 10 11 12 13 14 15 16 17 18 19 20 21 22 23 24 25 26 27 28 29 30 31 32 33 34 35 36 37 38 39 40 41 42 43 44 45 46 47 48 49 50

000
ASUS43 KLOT 231509
RWRIL

ILLINOIS REGIONAL WEATHER ROUNDUP
NATIONAL WEATHER SERVICE CHICAGO/ROMEOVILLE IL
1000 AM CDT WED MAY 23 2018

NOTE: "FAIR" INDICATES FEW OR NO CLOUDS BELOW 12,000 FEET WITH NO
SIGNIFICANT WEATHER AND/OR OBSTRUCTIONS TO VISIBILITY.

* THESE STATIONS ARE NOT UNDER NWS QUALITY CONTROL. THEY ALSO MAY NOT
  REPORT WEATHER SUCH AS PRECIPITATION OR FOG.

ILZ001-002-007-009-015-016-024-231600-
NORTHWEST ILLINOIS

CITY           SKY/WX    TMP DP  RH WIND       PRES   REMARKS
MOLINE         PTSUNNY   73  62  68 E3        30.18S
STERLING*      FAIR      69  60  73 MISG        N/A
SAVANNA*       PTSUNNY   69  62  78 CALM      30.20S
$$

ILZ003-004-008-010-011-017-018-231600-
NORTH CENTRAL ILLINOIS

CITY           SKY/WX    TMP DP  RH WIND       PRES   REMARKS
ROCKFORD       FAIR      68  59  73 VRB3      30.22R
FREEPORT*      FAIR      67  59  76 SE5       30.23R
ROCHELLE*      FAIR      68  60  74 E6        30.22S
DE KALB*       FAIR      67  60  76 CALM      30.22S
PERU*          FAIR      70  60  70 SE5       30.21S
$$

ILZ005-006-012>014-019>023-231600-
NORTHEAST ILLINOIS

CITY           SKY/WX    TMP DP  RH WIND       PRES   REMARKS
CHICAGO-OHARE  FAIR      68  57  68 CALM      30.20S
CHICAGO-MIDWAY FAIR      70  58  65 CALM      30.21R
AURORA         FAIR      69  61  75 NE3       30.21S
LANSING*       FAIR      68  61  77 E6        30.21S
JOLIET*        FAIR      71  61  70 E6        30.21S
WAUKEGAN       FAIR      68  60  75 S6        30.20S
DUPAGE AIRPORT FAIR      69  60  73 NE3       30.20S
KANKAKEE*      FAIR      69  57  66 E7        30.21S
WHEELING       FAIR      68  58  70 CALM      30.22S
MORRIS*        FAIR      69  61  74 E5        30.20S
ROMEOVILLE*    FAIR      69  59  71 E5        30.21S
NORTHERLY ISL    N/A     56  51  84 SE2         N/A
$$

LMZ740>746-231600-
SOUTHERN LAKE MICHIGAN

STATION/POSITION SKY/WX   TEMP    WIND        PRES    VSBY  WAVE
                          AIR SEA DIR/SP/G                  HT/PER
                          (F)     (DEG/KT/KT) (MB)    (MI)  (FT/S)
SOUTHERN BUOY              41 39  180/  4/  4 1023.6S         0
WILMETTE HARBOR            55 49  150/  2/  2   N/A           0
HARRISON CRIB              57     100/  3/  3   N/A
BURNHAM HARBOR             57     110/  2/  4   N/A
CALUMET HARBOR                     50/  4/  4 1022.6R
BURNS HARBOR               56        CALM     1023.7S
MICHIGAN CITY              50      20/  5/  5   N/A
MICHIGAN CITY 6N           51 55   50/  4/  4   N/A           0
ST. JOSEPH                 51 54  270/  2/  4 1023.9          0
$$

ILZ025>027-034>036-040-047-049-050-058-095>099-231600-
WEST-CENTRAL ILLINOIS

CITY           SKY/WX    TMP DP  RH WIND       PRES   REMARKS
QUINCY         SUNNY     76  62  62 SE8       30.16S
GALESBURG*     FAIR      72  62  69 E6        30.20S
MACOMB*        SUNNY     72  62  71 SE7       30.21R
JACKSONVILLE*  SUNNY     73  62  68 E6        30.17F
PITTSFIELD*    SUNNY     75  65  70 E7        30.18S
$$

ILZ028>032-037-038-041>044-048-051>054-059>061-231600-
CENTRAL ILLINOIS

CITY           SKY/WX    TMP DP  RH WIND       PRES   REMARKS
PONTIAC        FAIR      69  61  75 NE3       30.21S
BLOOMINGTON    FAIR      72  54  53 SE5       30.21S
DECATUR        FAIR      75  59  57 E5        30.18S
PEORIA         FAIR      72  61  68 E6        30.19S
LACON*         FAIR      70  58  64 SE6       30.20S
LINCOLN*       FAIR      76  61  59 NE6       30.18S
SPRINGFIELD    FAIR      77  63  61 E7        30.17F
TAYLORVILLE    FAIR      73  61  65 E6        30.18S
$$

ILZ033-039-045-046-055>057-062-063-231600-
EAST-CENTRAL ILLINOIS

CITY           SKY/WX    TMP DP  RH WIND       PRES   REMARKS
CHAMPAIGN      FAIR      72  55  55 N3        30.19S
DANVILLE*      FAIR      66  58  73 CALM      30.17S
RANTOUL*       FAIR      71  58  62 NE5       30.19S
MATTOON        FAIR      71  60  68 NE3       30.17S
PARIS*         FAIR      71  59  67 NE6       30.18S
$$

ILZ079-100>102-231600-
SOUTHWEST ILLINOIS

CITY           SKY/WX    TMP DP  RH WIND       PRES   REMARKS
ALTON          SUNNY     75  64  69 SE7       30.17S
BELLEVILLE     SUNNY     76  64  65 E5        30.15S
CAHOKIA*       SUNNY     78  63  59 E7        30.15S HX  80
SPARTA*        SUNNY     77  65  66 E9        30.17S
$$

ILZ064>066-069>071-074>076-080>082-084>086-088>090-092>094-231600-
SOUTH-CENTRAL ILLINOIS

CITY           SKY/WX    TMP DP  RH WIND       PRES   REMARKS
CARBONDALE     FAIR      77  65  66 E3        30.15R
CAIRO*         FAIR      78  67  71 NE6       30.13S
EFFINGHAM*     FAIR      75  59  57 E5        30.19S
MARION         MOSUNNY   75  63  64 NE8       30.16S
MT. VERNON       N/A     77  64  64 E5        30.16S
CENTRALIA*     SUNNY     76  63  64 NE6       30.16S
SALEM*         FAIR      76  62  60 E6        30.17S
METROPOLIS*    FAIR      79  66  64 N3        30.14R HX  81
$$

ILZ067-068-072-073-078-083-087-091-231600-
SOUTHEAST ILLINOIS

CITY           SKY/WX    TMP DP  RH WIND       PRES   REMARKS
LAWRENCEVILLE  FAIR      77  60  55 N6        30.15F
FLORA*         FAIR      76  62  62 N5        30.17S
FAIRFIELD*     FAIR      75  62  62 N5        30.15S
HARRISBURG*    FAIR      75  65  70 NE5       30.15S
ROBINSON*      FAIR      71  61  71 CALM      30.17S
CARMI*         FAIR      78  62  58 NE5       30.14S
$$

ABBREVIATIONS USED IN REMARKS
   TC - TEMPERATURE IN CELSIUS
  WCI - WIND CHILL INDEX
   HX - HEAT INDEX
  VSB - VISIBILITY
$$





USA.gov is the U.S. government's official web portal to all federal, state and local government web resources and services.